Find Starlink 34627

NORAD ID: 65016 Int'l Des: 2025-161 Owner: SPXS Country: US Constellation: starlink operational
LEOCIRCULAR

Current View

Loading 3D Globe...

About Starlink 34627

Description loading...

Upcoming Passes

Passes for default location (London). Set your location on the main map for personalized predictions.

Altitude History

Loading altitude history...

Two-Line Element Set

1 65016U 25161B 26149.51576705 .00025051 00000-0 85467-3 0 9997
2 65016 53.1593 278.8486 0001310 74.2977 285.8168 15.30215243 47814
Epoch: May 29, 2026 • Age: 16 hours

Current Status

Altitude 477.1 km
Velocity 7.63 km/s
Sub-Earth Point -7.35°S, 37.59°W
Launch Date Jul 30, 2025
Age 0.8 years
Type internet

Technical Details

Classification Payload
Mass 575.00 kg
Dry Mass 530.00 kg
Total Mass 575.00 kg
Length 0.30 m
Diameter 4.10 m
Span 29.00 m
Shape Box + pan
Manufacturer SPXS
Bus Type Starlink V2MO
Phase Status In Orbit
Owner/State SPXS/US

Most Searched